User: anonymous   Login
Location: Syracuse
(43.0480°N, 76.1480°W)
Time: 02:59:43
(UTC-05:00)
Language:

Cosmos 1140 Rocket - Orbit

View from above orbital plane
View from above orbital plane
View from above satellite
View from above satellite

Ground track
Ground track

The orbit data is extracted from the following two-line orbital elements,

1 11574U 79089B   17019.73325527  .00000058  00000-0  26409-4 0  9991
2 11574  74.0701 133.0627 0014763  74.3106 285.9677 14.40615026955768
Epoch (UTC): 19 January 2017 17:35:53
Eccentricity: 0.0014763
inclination: 74.0701°
perigee height: 746 km
apogee height: 767 km
right ascension of ascending node: 133.0627°
argument of perigee: 74.3106°
revolutions per day: 14.40615026
mean anomaly at epoch: 285.9677°
orbit number at epoch: 95576

The dashed part of the orbit path shows where the satellite is in the earth's shadow,  

DLR